Flight Track Log - Related Links

Times and Time Zones

All times are in EDT time to prevent confusion due to time zone crossing. See the SWA558 flight status page for this flight to view local times or setup timezone preferences in your user account.

Time Position Orientation Groundspeed Altitude Reporting Facility
EDT Latitude Longitude Course Direction KTS MPH feet Rate Location/Type
Sun 07:08:45 PM 33.6333 -117.8833 203° Southwest 148 170 2,000  Level Southern California TRACON
Sun 07:09:45 PM 33.6000 -117.9000 203° Southwest 174 200 3,500 1,867 Climbing Southern California TRACON
Sun 07:10:15 PM 33.5683 -117.8983 177° South 185 213 4,800 978 Climbing Los Angeles Center
Sun 07:11:17 PM 33.5061 -117.9397 209° Southwest 244 281 5,000 1,258 Climbing Los Angeles Center
Sun 07:12:19 PM 33.4425 -117.9856 211° Southwest 258 297 7,400 2,952 Climbing Los Angeles Center
Sun 07:13:21 PM 33.3794 -118.0350 213° Southwest 266 306 11,100 3,774 Climbing Los Angeles Center
Sun 07:14:23 PM 33.3756 -118.1392 267° West 309 356 15,200 3,726 Climbing Los Angeles Center
Sun 07:15:25 PM 33.4239 -118.2575 296° West 359 413 18,800 3,145 Climbing Los Angeles Center
Sun 07:16:27 PM 33.5328 -118.2944 344° North 401 461 21,700 2,736 Climbing Los Angeles Center
Sun 07:17:30 PM 33.6464 -118.3344 344° North 415 478 24,500 2,400 Climbing Los Angeles Center
Sun 07:18:32 PM 33.7558 -118.3714 344° North 444 511 26,700 2,226 Climbing Los Angeles Center
Sun 07:19:34 PM 33.9008 -118.4217 344° North 452 520 29,100 2,371 Climbing Los Angeles Center
Sun 07:20:36 PM 34.0156 -118.4733 340° North 450 518 31,600 2,081 Climbing Los Angeles Center
Sun 07:21:38 PM 34.1322 -118.5294 338° Northwest 450 518 33,400 1,984 Climbing Los Angeles Center
Sun 07:22:40 PM 34.2481 -118.5867 338° Northwest 450 518 35,700 1,742 Climbing Los Angeles Center
Sun 07:23:42 PM 34.3628 -118.6439 338° Northwest 447 514 37,000 1,694 Climbing Los Angeles Center
Sun 07:24:44 PM 34.5014 -118.7128 338° Northwest 451 519 39,200 1,452 Climbing Los Angeles Center
Sun 07:25:46 PM 34.6122 -118.7681 338° Northwest 435 501 40,000 387 Climbing Los Angeles Center
Sun 07:26:48 PM 34.7253 -118.8236 338° Northwest 437 503 40,000  Level Los Angeles Center
Sun 07:27:50 PM 34.8322 -118.8917 332° Northwest 441 507 40,000  Level Los Angeles Center
Sun 07:29:04 PM 34.9236 -118.9806 321° Northwest 421 484 40,000  Level Los Angeles Center
Sun 07:30:07 PM 35.0522 -119.1067 321° Northwest 424 488 40,000  Level Los Angeles Center
Sun 07:31:09 PM 35.1458 -119.1944 323° Northwest 427 491 40,000  Level Los Angeles Center
Sun 07:32:11 PM 35.2347 -119.2822 321° Northwest 417 480 40,000  Level Los Angeles Center
Sun 07:33:13 PM 35.3242 -119.3703 321° Northwest 416 479 40,000  Level Los Angeles Center
Sun 07:34:15 PM 35.4136 -119.4586 321° Northwest 416 479 40,000  Level Los Angeles Center
Sun 07:35:17 PM 35.5028 -119.5475 321° Northwest 416 479 40,000  Level Los Angeles Center
Sun 07:36:31 PM 35.6114 -119.6567 321° Northwest 423 487 40,000  Level Los Angeles Center
Sun 07:37:34 PM 35.7217 -119.7667 321° Northwest 429 494 40,000  Level Los Angeles Center
Sun 07:38:36 PM 35.8131 -119.8575 321° Northwest 427 491 40,000  Level Los Angeles Center
Sun 07:39:34 PM 35.9058 -119.9506 321° Northwest 433 498 40,000  Level Oakland Center
Sun 07:40:35 PM 35.9975 -120.0472 320° Northwest 436 502 40,000  Level Oakland Center
Sun 07:41:37 PM 36.0919 -120.1411 321° Northwest 437 503 40,000 -242 Level Oakland Center
Sun 07:42:39 PM 36.1850 -120.2369 320° Northwest 438 504 39,500 -829 Descending Oakland Center
Sun 07:43:40 PM 36.2944 -120.3486 321° Northwest 428 493 38,300 -1,024 Descending Oakland Center
Sun 07:44:42 PM 36.3872 -120.4403 322° Northwest 427 491 37,400 -1,659 Descending Oakland Center
Sun 07:45:43 PM 36.4775 -120.5361 320° Northwest 427 491 34,900 -2,683 Descending Oakland Center
Sun 07:46:45 PM 36.5750 -120.6131 328° Northwest 425 489 31,900 -2,565 Descending Oakland Center
Sun 07:47:47 PM 36.6761 -120.6758 334° Northwest 405 466 29,600 -1,902 Descending Oakland Center
Sun 07:48:48 PM 36.7536 -120.7764 314° West 401 461 28,000 -2,537 Descending Oakland Center
Sun 07:49:50 PM 36.8408 -120.8853 315° West 396 456 24,400 -3,220 Descending Oakland Center
Sun 07:50:51 PM 36.9197 -120.9794 316° Northwest 392 451 21,400 -2,488 Descending Oakland Center
Sun 07:51:53 PM 36.9942 -121.0733 315° West 382 440 19,300 -2,000 Descending Oakland Center
Sun 07:52:54 PM 37.0636 -121.1589 316° Northwest 349 402 17,300 -2,341 Descending Oakland Center
Sun 07:53:56 PM 37.1278 -121.2367 316° Northwest 333 383 14,500 -2,341 Descending Oakland Center
Sun 07:54:57 PM 37.1933 -121.3206 314° West 336 387 12,500 -1,951 Descending Oakland Center
Sun 07:55:59 PM 37.2564 -121.3978 316° Northwest 321 369 10,500 -1,707 Descending Oakland Center
Sun 07:57:00 PM 37.3272 -121.4867 315° West 301 346 9,000 -1,659 Descending Oakland Center
Sun 07:58:02 PM 37.3822 -121.5492 318° Northwest 282 325 7,100 -1,366 Descending Oakland Center
Sun 07:58:41 PM 37.4167 -121.6000 310° West 271 312 6,700 -667 Descending Northern Cal TRACON
Sun 07:59:41 PM 37.4667 -121.6500 322° Northwest 257 296 6,000 -333 Descending Northern Cal TRACON
Sun 08:00:47 PM 37.5333 -121.7167 322° Northwest 255 293 6,000  Level Northern Cal TRACON
Sun 08:01:47 PM 37.5500 -121.8000 284° West 244 281 6,000  Level Northern Cal TRACON
Sun 08:02:47 PM 37.5500 -121.8833 270° West 208 239 6,000 -350 Level Northern Cal TRACON
Sun 08:03:47 PM 37.5500 -121.9333 270° West 171 197 5,300 -843 Descending Northern Cal TRACON
Sun 08:04:48 PM 37.5667 -121.9833 293° West 164 189 4,300 -1,140 Descending Northern Cal TRACON
Sun 08:05:48 PM 37.5833 -122.0500 288° West 182 209 3,000 -900 Descending Northern Cal TRACON
Sun 08:06:48 PM 37.6167 -122.0833 322° Northwest 170 196 2,500 -700 Descending Northern Cal TRACON
Sun 08:07:48 PM 37.6500 -122.1333 310° West 158 182 1,600 -807 Descending Northern Cal TRACON
Sun 08:08:47 PM 37.6667 -122.1667 302° West 121 139 900 -655 Descending Northern Cal TRACON
Sun 08:09:47 PM 37.7000 -122.2000 322° Northwest 125 144 300 -600 Descending Northern Cal TRACON
Sun 08:12:00 PM 37.7167 -122.2167 270° West  Level FlightAware Approximate
Sun 08:19:00 PM 37.7213 -122.2207 270° West  Level Estimated

Login

Don't have an account? Register now (free) for customized features, flight alerts, and more!